Location: Piotrkow Trybunalski
(51.4000°N, 19.6830°E)
Time: 14:50:29
(UTC+01:00)

Vanguard 2 - Pass Details

Date: 08 February 2023
Orbit: 553 x 2927 km, 32.9° (Epoch: 24 March)

Event Time Altitude Azimuth Distance (km) Brightness Sun altitude
Rises 19:02:58 0° 203° (SSW) 4,556 11.7 -22.1°
Reaches altitude 10° 19:06:42 10° 188° (S) 3,956 11.2 -22.7°
Maximum altitude 19:14:09 21° 145° (SE) 3,804 10.7 -23.8°
Enters shadow 19:15:42 20° 136° (SE) 3,951 10.7 -24.1°
Drops below altitude 10° 19:23:48 10° 105° (ESE) 5,300 - -25.3°
Sets 19:29:57 0° 92° (E) 6,596 - -26.3°
